�������l�o���
Date,Time,MP-1(��Sv/h),MP-2(��Sv/h),MP-3(��Sv/h),MP-4(��Sv/h),MP-5(��Sv/h),MP-6(��Sv/h),MP-7(��Sv/h),����,����(m/s),���J
2022/02/24,00:00,0.156,0.143,0.226,0.217,0.221,0.123,0.079,���k��,3.7,��
2022/02/24,00:10,0.155,0.144,0.227,0.217,0.221,0.124,0.079,���k��,3.0,��
2022/02/24,00:20,0.157,0.142,0.226,0.218,0.222,0.125,0.079,���k��,5.2,��
2022/02/24,00:30,0.157,0.143,0.224,0.218,0.221,0.123,0.078,�k��,3.0,��
2022/02/24,00:40,0.156,0.143,0.225,0.218,0.221,0.123,0.079,��,3.8,��
2022/02/24,00:50,0.157,0.144,0.226,0.216,0.221,0.124,0.078,��,3.3,��
2022/02/24,01:00,0.157,0.143,0.226,0.217,0.221,0.124,0.078,���k��,3.0,��
2022/02/24,01:10,0.156,0.143,0.225,0.217,0.221,0.124,0.078,���k��,1.6,��
2022/02/24,01:20,0.156,0.142,0.225,0.217,0.222,0.124,0.078,��,1.9,��
2022/02/24,01:30,0.156,0.143,0.224,0.217,0.220,0.123,0.079,���k��,2.7,��
2022/02/24,01:40,0.157,0.143,0.226,0.218,0.220,0.124,0.079,�k��,2.9,��
2022/02/24,01:50,0.155,0.143,0.225,0.217,0.221,0.123,0.079,�k��,2.7,��
2022/02/24,02:00,0.157,0.143,0.225,0.217,0.221,0.123,0.079,�k��,2.4,��
2022/02/24,02:10,0.156,0.143,0.225,0.217,0.221,0.123,0.078,�k��,2.4,��
2022/02/24,02:20,0.157,0.144,0.227,0.219,0.221,0.123,0.079,��,1.6,��
2022/02/24,02:30,0.157,0.143,0.226,0.217,0.221,0.124,0.078,�k��,3.5,��
2022/02/24,02:40,0.157,0.143,0.226,0.217,0.221,0.124,0.078,���k��,2.4,��
2022/02/24,02:50,0.156,0.144,0.227,0.217,0.220,0.124,0.079,��,1.9,��
2022/02/24,03:00,0.156,0.142,0.225,0.217,0.221,0.123,0.078,���쐼,1.9,��
2022/02/24,03:10,0.156,0.143,0.225,0.216,0.221,0.123,0.079,���k��,1.9,��
2022/02/24,03:20,0.156,0.143,0.226,0.216,0.222,0.124,0.079,���k��,2.4,��
2022/02/24,03:30,0.156,0.143,0.226,0.217,0.221,0.123,0.079,���k��,4.4,��
2022/02/24,03:40,0.157,0.144,0.226,0.217,0.221,0.124,0.079,�k��,5.5,��
2022/02/24,03:50,0.156,0.143,0.226,0.217,0.220,0.124,0.078,�k�k��,4.6,��
2022/02/24,04:00,0.156,0.143,0.226,0.217,0.221,0.124,0.079,���k��,4.1,��
2022/02/24,04:10,0.157,0.144,0.225,0.218,0.221,0.124,0.079,�k��,3.5,��
2022/02/24,04:20,0.156,0.143,0.225,0.218,0.222,0.124,0.078,�k��,4.4,��
2022/02/24,04:30,0.156,0.144,0.226,0.217,0.220,0.123,0.078,�k��,4.4,��
2022/02/24,04:40,0.157,0.143,0.226,0.217,0.220,0.123,0.078,�k��,2.9,��
2022/02/24,04:50,0.156,0.142,0.225,0.216,0.221,0.123,0.079,�k��,3.8,��
2022/02/24,05:00,0.156,0.143,0.226,0.216,0.220,0.124,0.079,���k��,3.2,��
2022/02/24,05:10,0.156,0.143,0.225,0.218,0.221,0.123,0.079,�k��,2.4,��
2022/02/24,05:20,0.156,0.143,0.226,0.217,0.222,0.123,0.079,�k��,1.1,��
2022/02/24,05:30,0.156,0.144,0.226,0.219,0.221,0.124,0.079,���k��,1.8,��
2022/02/24,05:40,0.156,0.144,0.225,0.217,0.222,0.123,0.079,��,1.6,��
2022/02/24,05:50,0.156,0.143,0.225,0.217,0.220,0.123,0.079,���k��,4.1,��
2022/02/24,06:00,0.157,0.143,0.226,0.216,0.221,0.124,0.078,���k��,3.7,��
2022/02/24,06:10,0.156,0.144,0.226,0.218,0.221,0.123,0.079,���k��,4.4,��
2022/02/24,06:20,0.156,0.142,0.226,0.217,0.220,0.123,0.078,���k��,5.2,��
2022/02/24,06:30,0.156,0.144,0.225,0.217,0.220,0.124,0.079,�k��,4.4,��
2022/02/24,06:40,0.156,0.144,0.225,0.217,0.221,0.124,0.079,�k��,3.5,��
2022/02/24,06:50,0.156,0.143,0.225,0.218,0.221,0.125,0.079,�k�k��,1.4,��
2022/02/24,07:00,0.156,0.143,0.224,0.218,0.221,0.123,0.079,�k�k��,1.3,��
2022/02/24,07:10,0.156,0.143,0.225,0.218,0.220,0.124,0.078,�k�k��,1.1,��
2022/02/24,07:20,0.156,0.143,0.225,0.217,0.221,0.123,0.078,�k�k��,1.8,��
2022/02/24,07:30,0.156,0.144,0.225,0.217,0.220,0.124,0.079,�k��,1.3,��
2022/02/24,07:40,0.156,0.144,0.225,0.216,0.220,0.123,0.079,�k��,2.7,��
2022/02/24,07:50,0.156,0.143,0.225,0.217,0.220,0.124,0.079,�k��,3.3,��
2022/02/24,08:00,0.155,0.143,0.226,0.216,0.221,0.124,0.078,�k��,6.9,��
2022/02/24,08:10,0.156,0.143,0.225,0.216,0.222,0.124,0.078,�k��,5.5,��
2022/02/24,08:20,0.156,0.143,0.224,0.217,0.219,0.123,0.077,���k��,6.0,��
2022/02/24,08:30,0.156,0.144,0.225,0.217,0.220,0.123,0.078,�k��,6.0,��
2022/02/24,08:40,0.156,0.143,0.225,0.216,0.221,0.124,0.079,���k��,6.2,��
2022/02/24,08:50,0.156,0.142,0.224,0.218,0.221,0.123,0.078,���k��,8.0,��
2022/02/24,09:00,0.156,0.143,0.225,0.217,0.222,0.124,0.078,���k��,8.0,��
2022/02/24,09:10,0.156,0.143,0.224,0.217,0.220,0.123,0.078,���k��,6.7,��
2022/02/24,09:20,0.157,0.143,0.224,0.215,0.220,0.124,0.078,���k��,7.3,��
2022/02/24,09:30,0.156,0.143,0.224,0.217,0.220,0.124,0.078,��,6.9,��
2022/02/24,09:40,0.155,0.143,0.224,0.217,0.220,0.124,0.078,���k��,7.2,��
2022/02/24,09:50,0.155,0.142,0.225,0.217,0.221,0.123,0.078,���k��,6.8,��
2022/02/24,10:00,0.155,0.142,0.224,0.216,0.221,0.124,0.078,���k��,6.2,��
2022/02/24,10:10,0.154,0.143,0.225,0.218,0.221,0.123,0.079,���k��,6.1,��
2022/02/24,10:20,0.155,0.142,0.225,0.216,0.220,0.123,0.079,��,5.7,�L
2022/02/24,10:30,0.154,0.142,0.225,0.217,0.222,0.123,0.079,��,4.6,�L
2022/02/24,10:40,0.156,0.142,0.225,0.217,0.221,0.124,0.079,�k��,7.7,��
2022/02/24,10:50,0.155,0.144,0.224,0.217,0.222,0.123,0.078,���k��,7.2,��
2022/02/24,11:00,0.157,0.144,0.224,0.216,0.222,0.124,0.079,�k��,9.3,��
2022/02/24,11:10,0.157,0.143,0.224,0.217,0.221,0.124,0.079,���k��,9.2,�L
2022/02/24,11:20,0.156,0.143,0.225,0.216,0.222,0.123,0.078,���k��,8.9,�L
2022/02/24,11:30,0.157,0.143,0.225,0.218,0.221,0.124,0.079,���k��,10.0,�L
2022/02/24,11:40,0.156,0.142,0.224,0.217,0.222,0.124,0.079,���k��,7.6,�L
2022/02/24,11:50,0.156,0.143,0.225,0.217,0.221,0.124,0.079,���k��,7.6,��
2022/02/24,12:00,0.157,0.144,0.226,0.218,0.222,0.124,0.079,���k��,6.1,��
2022/02/24,12:10,0.156,0.143,0.226,0.219,0.222,0.125,0.078,���k��,6.4,��
2022/02/24,12:20,0.156,0.143,0.225,0.218,0.222,0.124,0.079,���k��,7.3,��
2022/02/24,12:30,0.156,0.144,0.225,0.219,0.222,0.124,0.079,���k��,6.2,��
2022/02/24,12:40,0.156,0.143,0.224,0.217,0.221,0.124,0.078,�k��,7.1,��
2022/02/24,12:50,0.156,0.144,0.226,0.218,0.220,0.124,0.078,�k��,9.1,��
2022/02/24,13:00,0.155,0.143,0.225,0.217,0.222,0.124,0.079,���k��,7.9,��
2022/02/24,13:10,0.157,0.143,0.226,0.217,0.222,0.125,0.078,���k��,7.1,��
2022/02/24,13:20,0.157,0.144,0.226,0.218,0.221,0.125,0.079,���k��,7.2,��
2022/02/24,13:30,0.157,0.144,0.225,0.219,0.223,0.124,0.078,�k��,8.0,��
2022/02/24,13:40,0.156,0.143,0.225,0.218,0.222,0.124,0.079,���k��,5.5,��
2022/02/24,13:50,0.157,0.142,0.225,0.219,0.222,0.124,0.079,�k��,5.4,��
2022/02/24,14:00,0.155,0.144,0.226,0.218,0.222,0.124,0.079,�k��,7.4,��
2022/02/24,14:10,0.156,0.143,0.225,0.218,0.222,0.125,0.079,���k��,6.5,��
2022/02/24,14:20,0.156,0.144,0.226,0.219,0.221,0.124,0.079,�k��,6.1,��
2022/02/24,14:30,0.156,0.144,0.226,0.218,0.222,0.125,0.079,���k��,7.6,��
2022/02/24,14:40,0.157,0.144,0.225,0.218,0.223,0.124,0.079,���k��,5.4,��
2022/02/24,14:50,0.157,0.145,0.226,0.217,0.223,0.124,0.079,�k��,7.6,��
2022/02/24,15:00,0.157,0.143,0.227,0.219,0.222,0.125,0.080,���k��,7.9,��
2022/02/24,15:10,0.156,0.144,0.227,0.218,0.221,0.124,0.078,���k��,6.9,��
2022/02/24,15:20,0.157,0.143,0.226,0.218,0.222,0.123,0.079,��,5.8,��
2022/02/24,15:30,0.156,0.144,0.226,0.218,0.222,0.124,0.080,���k��,6.9,��
2022/02/24,15:40,0.156,0.144,0.225,0.219,0.221,0.125,0.079,��,9.6,��
2022/02/24,15:50,0.158,0.143,0.226,0.219,0.222,0.124,0.079,���k��,8.2,��
2022/02/24,16:00,0.157,0.144,0.226,0.218,0.222,0.125,0.080,�k��,6.4,��
2022/02/24,16:10,0.157,0.144,0.226,0.219,0.222,0.125,0.079,���k��,4.3,��
2022/02/24,16:20,0.157,0.145,0.227,0.219,0.222,0.124,0.078,���k��,5.9,��
2022/02/24,16:30,0.157,0.144,0.227,0.218,0.221,0.125,0.080,���k��,6.4,��
2022/02/24,16:40,0.157,0.145,0.227,0.219,0.222,0.124,0.079,���k��,4.1,��
2022/02/24,16:50,0.156,0.145,0.227,0.218,0.221,0.125,0.078,���k��,6.8,��
2022/02/24,17:00,0.156,0.144,0.226,0.218,0.221,0.125,0.080,���k��,7.2,��
2022/02/24,17:10,0.157,0.144,0.225,0.220,0.221,0.125,0.079,���k��,6.6,��
2022/02/24,17:20,0.157,0.143,0.227,0.218,0.222,0.124,0.079,���k��,5.5,��
2022/02/24,17:30,0.157,0.145,0.227,0.218,0.221,0.124,0.079,���k��,6.8,��
2022/02/24,17:40,0.157,0.144,0.226,0.218,0.221,0.125,0.079,��,6.6,��
2022/02/24,17:50,0.157,0.143,0.226,0.218,0.222,0.125,0.079,���k��,7.0,��
2022/02/24,18:00,0.158,0.144,0.226,0.219,0.221,0.124,0.079,���k��,5.4,��
2022/02/24,18:10,0.157,0.145,0.228,0.219,0.222,0.124,0.079,��,3.9,��
2022/02/24,18:20,0.158,0.145,0.226,0.219,0.222,0.124,0.079,���k��,4.8,��
2022/02/24,18:30,0.156,0.145,0.227,0.218,0.223,0.124,0.079,��,3.5,��
2022/02/24,18:40,0.158,0.144,0.226,0.218,0.221,0.124,0.079,���k��,3.9,��
2022/02/24,18:50,0.157,0.144,0.227,0.218,0.222,0.125,0.080,���k��,4.3,��
2022/02/24,19:00,0.157,0.145,0.227,0.219,0.221,0.125,0.079,���k��,2.6,��
2022/02/24,19:10,0.157,0.145,0.227,0.220,0.220,0.125,0.079,��,2.1,��
2022/02/24,19:20,0.158,0.144,0.227,0.219,0.222,0.125,0.079,���k��,2.4,��
2022/02/24,19:30,0.157,0.144,0.226,0.218,0.222,0.125,0.079,��,1.9,��
2022/02/24,19:40,0.156,0.144,0.227,0.218,0.222,0.125,0.079,���k��,1.6,��
2022/02/24,19:50,0.158,0.144,0.226,0.218,0.221,0.124,0.079,���k��,2.9,��
2022/02/24,20:00,0.157,0.145,0.226,0.219,0.222,0.124,0.079,��,3.5,��
2022/02/24,20:10,0.156,0.144,0.226,0.218,0.221,0.124,0.079,��,3.7,��
2022/02/24,20:20,0.156,0.144,0.227,0.218,0.221,0.125,0.079,���k��,3.3,��
2022/02/24,20:30,0.157,0.145,0.226,0.218,0.222,0.124,0.079,���k��,2.7,��
2022/02/24,20:40,0.157,0.145,0.226,0.218,0.222,0.124,0.078,���k��,1.3,��
2022/02/24,20:50,0.158,0.144,0.227,0.218,0.222,0.125,0.079,�k��,0.8,��
2022/02/24,21:00,0.157,0.144,0.226,0.220,0.223,0.124,0.078,�k�k��,1.0,��
2022/02/24,21:10,0.157,0.144,0.227,0.219,0.221,0.125,0.080,�k,1.6,��
2022/02/24,21:20,0.157,0.144,0.227,0.219,0.221,0.124,0.079,�k,2.4,��
2022/02/24,21:30,0.159,0.143,0.226,0.218,0.221,0.125,0.080,�k,1.9,��
2022/02/24,21:40,0.156,0.145,0.227,0.218,0.223,0.125,0.079,�k�k��,2.3,��
2022/02/24,21:50,0.157,0.144,0.226,0.218,0.222,0.124,0.079,�k�k��,1.6,��
2022/02/24,22:00,0.157,0.145,0.227,0.219,0.223,0.124,0.078,�k,2.2,��
2022/02/24,22:10,0.157,0.144,0.226,0.219,0.221,0.124,0.079,�k,2.1,��
2022/02/24,22:20,0.158,0.144,0.226,0.219,0.222,0.125,0.079,�k,2.2,��
2022/02/24,22:30,0.157,0.145,0.228,0.221,0.222,0.124,0.079,�k�k��,2.7,��
2022/02/24,22:40,0.158,0.144,0.227,0.220,0.222,0.125,0.079,�k,2.2,��
2022/02/24,22:50,0.158,0.145,0.226,0.219,0.222,0.125,0.079,�k,1.9,��
2022/02/24,23:00,0.157,0.144,0.227,0.219,0.222,0.125,0.079,�k,0.9,��
2022/02/24,23:10,0.157,0.144,0.226,0.219,0.222,0.124,0.079,-,CALM,��
2022/02/24,23:20,0.157,0.144,0.227,0.218,0.222,0.124,0.079,-,CALM,��
2022/02/24,23:30,0.156,0.144,0.226,0.219,0.220,0.124,0.080,��,2.0,��
2022/02/24,23:40,0.158,0.145,0.227,0.219,0.222,0.124,0.079,��,2.1,��
2022/02/24,23:50,0.157,0.144,0.226,0.218,0.223,0.125,0.079,��,3.7,��
